Volver al catálogo

ARIANE 5 DEB

SYLDA

ActivoGTO
NORAD 27833·DEBRIS·🇫🇷 France

Lanzado Jun 11, 2003 desde Guiana Space Centre

Loading…

TLE

EnvejeciendoSource: Space-Track

Época: Sep 14, 2026, 10:22 UTC

1 27833U 03028D   26257.43197104 -.00000179  00000-0 -13467-2 0  9999
2 27833   6.8842  76.2969 7149859  27.2566 356.8427  2.26670659192137

Sigue ARIANE 5 DEB en tiempo real con AllMySat

Download on the App Store